NOAA 16 DEB, 41655

Orbit data source: Space-Track

NOAA 16 DEB, 41655 is space debris in SSO originally from a launch on Thu, 21 Sep 2000 UTC launched from the Air Force Western Test Range (AFWTR). Debris objects in space refer to the collection of defunct objects orbiting the Earth. Examples of debris include non-operational satellites, rocket bodies, and fragments generated from explosions, collisions, or faulty payload assembly.

Loading next visibility...
NOAA 16 DEB details
Identifier
41655, 2000-055NU
Orbit
SSO
Last TLE update16 hours ago
Origin
Flag of USNOAA (US)
ManufacturerUnknown
MissionSpacecraft
Bus & MotorUnknown
MassUnknown
Launch date (UTC)
2000-09-21 (24 years ago)
Launch vehicleUnknown
Launch site
Air Force Western Test Range (AFWTR)
Object type
Payload
Rocket body
Debris
Shape & HBRUnknown
Radar Cross SectionSmall (<0.1 m²)

Expand to show TLE details & history

TLE from 16 hours ago
0 NOAA 16 DEB
1 41655U 00055NU  24339.48003506  .00011156  00000-0  43134-2 0  9999
2 41655  98.7278  67.5089 0017514 344.4739  15.5903 14.30174377447107
Epoch: 2024-12-04T11:31Z
Definitive object data (Epoch: 2024-12-04T11:31:15.029Z)
Latitude-0.00008°
Longitude-179.0783°
Altitude781.981 km
Speed7.469 km/s
True Right ascension04h 30m 02s
True Declination0° 00' 00"
Sunlit
Object was in full shadow at TLE epoch
Visualization TLE readout
Latitude-73.54022°
Longitude-29.51867°
Altitude817.277 km
Speed7.444 km/s
Apparent Right ascension13h 59m 03s
Apparent Declination-57° 42' 30"
Sunlit
Object is in daylight
Visualization observer readout
Local Sidereal Time01:46:53
Azimuth185.292° SSW
Elevation-72.1°
Doppler factor1
Orbital elements
Apogee altitude800.845 km
Perigee altitude775.743 km
Semi-major axis7,166.431 km
Eccentricity0.0017514
Inclination98.7278°
RAAN67.5089°
Arg. of periapsis344.4739°
True anomaly15.64435°
Mean anomaly15.5903°
Eccentric anomaly15.61731°
Mean motion3.57758 °/min
BSTAR0.0043134
Orbital period100.63 mins
Loading maneuver chart data...
Loading historical data...
Loading historical data...
Loading historical data...
Loading historical data...
Loading historical data...
Loading historical data...
Loading historical data...

NOAA 16 DEB Visibility forecast

Observer location: undefined°, undefined

Span
Click to sort rows by Start time (UTC) header in descending order
Start Az.
Max El. time (UTC)
Max El. Az.
Max El.
End time (UTC)
End Az.
9 mins2024-12-05 06:06:34.863Z169.09° S2024-12-05 06:10:34.863Z244.115° WSW44.714°2024-12-05 06:15:34.863Z344.543° N
8 mins2024-12-05 18:20:34.863Z38.812° NE2024-12-05 18:23:34.863Z85.294° E30.718°2024-12-05 18:28:34.863Z163.678° S
7 mins2024-12-05 20:00:34.863Z337.018° NNW2024-12-05 20:03:34.863Z289.441° WNW24.205°2024-12-05 20:07:34.863Z238.762° WSW
|